{"data":{"norad_id":57630,"epoch":"2026-05-25T03:59:28.726944Z","epoch_age_seconds":64684,"freshness":"FRESH","line1":"1 57630U 23121E   26145.16630471  .00000831  00000+0  18859-3 0  9991","line2":"2 57630  45.0028  41.4453 0006909 140.1910 219.9456 14.63808457148514","mean_motion":14.63808457,"eccentricity":0.0006909,"inclination_deg":45.0028,"raan_deg":41.4453,"arg_perigee_deg":140.191,"mean_anomaly_deg":219.9456,"bstar":0.00018859,"rev_number":14851,"period_min":98.373526475671,"perigee_km":676.02640543025,"apogee_km":685.78058758833,"semimajor_km":7059.0404965093,"source":"CELESTRAK","updated_at":"2026-05-25T13:38:00.149861Z"}}